Amarillo, TX

11:56 PM CST on December 05, 2019 (GMT -0600)
Amarillo International

Weather History for KAMA - November, 2019

Change the Weather History Date:

Tuesday, November 19, 2019

  Actual Average Record
Temperature  
Mean Temperature 59 °F 45 °F  
Max Temperature 78 °F 58 °F 82 °F (2007)
Min Temperature 40 °F 31 °F 13 °F (1906)
Degree Days  
Heating Degree Days 6 20  
Month to date heating degree days 353 310  
Since 1 July heating degree days 749 590  
Cooling Degree Days 0 0  
Month to date cooling degree days 0 0  
Year to date cooling degree days 1700 1398  
Growing Degree Days 9 (Base 50)    
Moisture  
Dew Point 30 °F    
Average Humidity 40    
Maximum Humidity 62    
Minimum Humidity 17    
Precipitation  
Precipitation 0.00 in 0.02 in 0.71 in (1906)
Month to date precipitation 0.02 0.57  
Year to date precipitation 24.03 19.42  
Snow  
Snow 0.00 in 0.10 in 8.50 in (1906)
Month to date snowfall T 1.3  
Since 1 July snowfall 5.5 1.5  
Since 1 September snowfall 5.5 1.5  
Snow Depth 0.00 in    
Sea Level Pressure  
Sea Level Pressure 29.80 in    
Wind  
Wind Speed 11 mph ()    
Max Wind Speed 30 mph    
Max Gust Speed 37 mph    
Visibility 10.0 miles    
Events      
T = Trace of Precipitation, MM = Missing Value Source: Averaged Metar Reports

Daily Weather History Graph

Daily Weather History Graph

Search for Another Location

Airport or City:

Astronomy

Nov. 19, 2019 Rise Set
Actual Time 7:25 AM CST 5:38 PM CST
Civil Twilight 6:58 AM CST 6:05 PM CST
Nautical Twilight 6:27 AM CST 6:36 PM CST
Astronomical Twilight 5:57 AM CST 7:06 PM CST
Moon No Moon Rise 1:38 PM CST (11/19)
Length of Visible Light 11h 07m
Length of Day
10h 13m
Waning Gibbous, 51% of the Moon is Illuminated
Nov 19
Waning Gibbous
Nov 19
Last Quarter
Nov 26
New
Dec 4
First Quarter
Dec 11
Full

Hourly Weather History & Observations

Time (CST) Temp. Windchill Dew Point Humidity Pressure Visibility Wind Dir Wind Speed Gust Speed Precip Events Conditions
12:53 AM 45.0 °F 40.6 °F 30.9 °F 58% 29.89 in 10.0 mi SE 8.1 mph - N/A   Clear
1:53 AM 46.0 °F 43.9 °F 30.9 °F 56% 29.89 in 10.0 mi South 4.6 mph - N/A   Clear
2:53 AM 43.0 °F 38.2 °F 30.9 °F 62% 29.90 in 10.0 mi SSW 8.1 mph - N/A   Clear
3:53 AM 43.0 °F 37.7 °F 28.0 °F 56% 29.89 in 10.0 mi South 9.2 mph - N/A   Clear
4:53 AM 43.0 °F 37.7 °F 28.0 °F 56% 29.88 in 10.0 mi South 9.2 mph - N/A   Clear
5:53 AM 42.1 °F 36.6 °F 28.9 °F 60% 29.89 in 10.0 mi South 9.2 mph - N/A   Clear
6:53 AM 43.0 °F 36.4 °F 30.0 °F 60% 29.88 in 10.0 mi South 12.7 mph - N/A   Clear
7:53 AM 43.0 °F 36.4 °F 30.0 °F 60% 29.90 in 10.0 mi South 12.7 mph - N/A   Clear
8:53 AM 52.0 °F - 33.1 °F 49% 29.88 in 10.0 mi South 10.4 mph - N/A   Clear
8:57 AM 53.1 °F - 33.1 °F 47% 29.93 in 10.0 mi South 11.5 mph - N/A   Clear
9:53 AM 60.1 °F - 34.0 °F 38% 29.86 in 10.0 mi South 15.0 mph - N/A   Clear
10:53 AM 63.0 °F - 33.1 °F 33% 29.84 in 10.0 mi South 17.3 mph - 0.00 in   Clear
11:53 AM 68.0 °F - 34.0 °F 28% 29.80 in 10.0 mi SSE 19.6 mph - 0.00 in   Clear
12:53 PM 75.0 °F - 30.9 °F 20% 29.75 in 10.0 mi South 23.0 mph 34.5 mph N/A   Clear
1:53 PM 77.0 °F - 28.9 °F 17% 29.70 in 10.0 mi SSW 26.5 mph 33.4 mph N/A   Clear
3:53 PM 75.9 °F - 28.0 °F 17% 29.68 in 10.0 mi SSW 21.9 mph - N/A   Clear
4:53 PM 72.0 °F - 28.0 °F 20% 29.68 in 10.0 mi South 18.4 mph - N/A   Clear
5:53 PM 66.9 °F - 28.9 °F 24% 29.69 in 10.0 mi SSE 17.3 mph - N/A   Clear
6:53 PM 63.0 °F - 28.9 °F 28% 29.71 in 10.0 mi South 17.3 mph - N/A   Clear
7:53 PM 59.0 °F - 30.0 °F 33% 29.72 in 10.0 mi SSE 16.1 mph - N/A   Clear
8:53 PM 61.0 °F - 30.9 °F 32% 29.70 in 10.0 mi South 18.4 mph - N/A   Clear
9:53 PM 57.0 °F - 30.9 °F 37% 29.70 in 10.0 mi South 16.1 mph - N/A   Clear
10:53 PM 52.0 °F - 28.9 °F 41% 29.69 in 10.0 mi South 11.5 mph - N/A   Clear
11:53 PM 53.1 °F - 28.9 °F 40% 29.67 in 10.0 mi SSW 16.1 mph - N/A   Clear